TimeCDT,TemperatureF,Dew PointF,Humidity,Sea Level PressureIn,VisibilityMPH,Wind Direction,Wind SpeedMPH,Gust SpeedMPH,PrecipitationIn,Events,Conditions,WindDirDegrees,DateUTC
12:53 AM,78.1,69.1,74,29.97,10.0,South,4.6,-,N/A,,Mostly Cloudy,170,2013-07-20 05:53:00
1:53 AM,78.1,68.0,71,29.96,10.0,South,5.8,-,N/A,,Mostly Cloudy,170,2013-07-20 06:53:00
2:53 AM,78.1,68.0,71,29.96,10.0,South,4.6,-,N/A,,Overcast,180,2013-07-20 07:53:00
3:53 AM,78.1,68.0,71,29.96,10.0,South,3.5,-,N/A,,Mostly Cloudy,180,2013-07-20 08:53:00
4:53 AM,78.1,69.1,74,29.95,10.0,South,4.6,-,N/A,,Mostly Cloudy,180,2013-07-20 09:53:00
5:53 AM,77.0,69.1,76,29.95,10.0,SSE,4.6,-,N/A,,Mostly Cloudy,150,2013-07-20 10:53:00
6:53 AM,75.9,69.1,79,29.95,10.0,ESE,6.9,-,N/A,,Mostly Cloudy,120,2013-07-20 11:53:00
7:53 AM,77.0,70.0,79,29.95,10.0,SSE,6.9,-,N/A,,Mostly Cloudy,160,2013-07-20 12:53:00
8:53 AM,80.1,70.0,71,29.94,10.0,SSW,4.6,-,N/A,,Scattered Clouds,210,2013-07-20 13:53:00
9:53 AM,84.9,71.1,63,29.94,10.0,Variable,5.8,-,N/A,,Scattered Clouds,0,2013-07-20 14:53:00
10:53 AM,88.0,71.1,57,29.94,10.0,Calm,Calm,-,N/A,,Scattered Clouds,0,2013-07-20 15:53:00
11:53 AM,91.0,71.1,52,29.93,10.0,Calm,Calm,-,N/A,,Scattered Clouds,0,2013-07-20 16:53:00
12:53 PM,93.0,68.0,44,29.91,10.0,SSW,8.1,-,N/A,,Scattered Clouds,210,2013-07-20 17:53:00
1:53 PM,93.9,68.0,43,29.90,10.0,Variable,3.5,-,N/A,,Mostly Cloudy,0,2013-07-20 18:53:00
2:53 PM,95.0,66.0,38,29.87,10.0,Calm,Calm,-,N/A,,Mostly Cloudy,0,2013-07-20 19:53:00
3:53 PM,93.0,66.9,42,29.86,10.0,SE,4.6,-,N/A,,Mostly Cloudy,130,2013-07-20 20:53:00
4:53 PM,93.0,66.9,42,29.85,10.0,SE,18.4,26.5,N/A,,Overcast,130,2013-07-20 21:53:00
5:23 PM,87.8,66.2,49,29.89,1.5,East,11.5,-,N/A,Rain,Rain,90,2013-07-20 22:23:00
5:33 PM,84.2,69.8,62,29.90,5.0,West,12.7,-,0.00,Rain-Thunderstorm,Light Thunderstorms and Rain,270,2013-07-20 22:33:00
5:39 PM,80.6,71.6,74,29.89,1.8,West,10.4,-,0.06,Rain-Thunderstorm,Heavy Thunderstorms and Rain,260,2013-07-20 22:39:00
5:50 PM,78.8,71.6,78,29.88,3.0,West,9.2,-,0.14,Rain-Thunderstorm,Thunderstorms and Rain,260,2013-07-20 22:50:00
5:53 PM,78.1,72.0,81,29.86,4.0,WSW,9.2,-,0.14,Rain-Thunderstorm,Light Thunderstorms and Rain,250,2013-07-20 22:53:00
6:33 PM,82.4,71.6,70,29.87,10.0,Calm,Calm,-,0.02,,Mostly Cloudy,0,2013-07-20 23:33:00
6:53 PM,84.0,72.0,67,29.84,10.0,East,3.5,-,0.02,,Mostly Cloudy,80,2013-07-20 23:53:00
7:53 PM,86.0,71.1,61,29.84,10.0,SW,4.6,-,N/A,,Scattered Clouds,230,2013-07-21 00:53:00
8:53 PM,84.0,71.1,65,29.86,10.0,South,6.9,-,N/A,,Partly Cloudy,170,2013-07-21 01:53:00
9:53 PM,82.9,71.1,67,29.87,10.0,South,10.4,-,N/A,,Partly Cloudy,180,2013-07-21 02:53:00
10:53 PM,82.0,70.0,67,29.89,10.0,South,11.5,-,N/A,,Clear,180,2013-07-21 03:53:00
11:53 PM,81.0,71.1,72,29.89,10.0,South,9.2,-,N/A,,Scattered Clouds,170,2013-07-21 04:53:00